Погода в Нова-Сажине

Польша     50°19′51″N   22°20′15″E
темп.,
°C
ветер,
м/с
пор.,
м/с
влажн.,
%
обл.,
%
осадки,
мм/ч
давл.,
гПа
погр.,
м
1 марта, пн
пн101:00+3сз51092100 0.1 1031516
04:00+2ссз4898100 0.1 1032294
07:00+2ссз489697 0.1 1033308
10:00+4ссз458064 0.0 1035508
13:00+6ссз346737 0.0 1036872
16:00+5зсз4575100 0.0 1035713
19:00+3зсз238592 0.1 103650
22:00+1з35920 0.0 1036104
2 марта, вт
вт201:000з35950 0.0 1036134
04:000з49940 0.0 1034221
07:00+1з510900 0.0 1034285
10:00+6з69700 0.0 1033395
13:00+9з69610 0.0 1032600
16:00+9з510630 0.0 1031524
19:00+5зсз511780 0.0 1032251
22:00+3зсз36890 0.0 1033102
3 марта, ср
ср301:00+2з34910 0.0 103357
04:00+1з33920 0.0 103241
07:00+1з23930 0.0 103244
10:00+6зюз23710 0.0 1031349
13:00+9зюз23540 0.0 1029672
16:00+10з23560 0.0 1026124
19:00+6ююз35743 0.0 102669
22:00+4юз5118743 0.0 1024223
4 марта, чт
чт401:00+4юз6128863 0.0 1022249
04:00+3юз510900 0.0 1020197
07:00+3юз6118516 0.0 1018274
10:00+8зюз6106352 0.0 1016575
13:00+11зюз7105359 0.0 10141153
16:00+10юз6106390 0.0 1011748
19:00+6юз6117878 0.0 1011275
22:00+7юз5978100 0.2 1010298
5 марта, пт
пт501:00+6юз3685100 0.8 1008184
04:00+5сз6995100 3.4 1008609
07:00+2сз5895100 4.6 1010510
10:00+1с6878100 0.2 1013709
13:00+2с6752100 0.2 10161128
16:00+2с574375 0.0 10171778
19:000сз386143 0.0 1021271
22:00−1ссз496533 0.1 1023652